Location: Cviki?i
(45.1794°N, 16.5211°E)
Time: 20:26:41
(UTC+00:00)

Daily predictions for brighter satellites

Satellite Brightness Start Highest point End
(mag) Time Altitude Azimuth Time Altitude Azimuth Time Altitude Azimuth
BREEZE-M DEB (TANK) 4.4 19:13:49 10° WNW 19:17:06 56° N 19:27:39 10° E
CZ-2C R/B 4.0 19:17:31 10° NNE 19:22:19 80° WNW 19:27:05 10° SSW
H-2A R/B 4.4 19:19:38 10° SW 19:23:57 24° W 19:28:18 10° NW
SPOT 1/Viking Rocket 4.4 19:20:45 10° SE 19:25:23 35° ENE 19:30:03 10° N
Cosmos-2242 3.6 19:26:37 10° N 19:30:45 42° ENE 19:34:54 10° SSE
SPOT 3 Rocket 4.1 19:26:32 10° S 19:31:40 59° WSW 19:36:51 10° NNW
Cosmos 1400 Rocket 3.3 19:28:51 10° N 19:32:39 42° ENE 19:36:23 10° SSE
Alouette 2 Rocket 4.2 19:30:23 10° N 19:34:07 43° ENE 19:39:06 10° SSE
Lacrosse 5 rocket 4.1 19:32:58 10° WNW 19:36:05 19° NNW 19:39:07 10° NNE
Resurs 01 Rocket 1.9 19:33:09 10° S 19:37:33 71° WSW 19:41:58 10° NNW
Terra 3.5 19:36:30 10° ESE 19:40:00 21° ENE 19:43:31 10° NNE
BREEZE-M DEB (TANK) 4.0 19:37:48 10° SSW 19:43:25 26° SSE 19:45:49 10° E
SAR-Lupe-2 4.5 19:42:30 10° NE 19:45:44 30° E 19:48:38 12° SSE
Cosmos 2322 Rocket 3.4 19:41:22 10° SW 19:46:45 46° WNW 19:52:10 10° NNE
NOSS 3-3 (A) 4.3 19:44:09 10° S 19:49:30 41° ESE 19:55:25 10° NE
NOSS 3-3 (C) 4.3 19:44:15 10° S 19:49:36 40° ESE 19:55:32 10° NE
BREEZE M DEB (TANK) 2.0 19:46:39 10° WNW 19:49:43 64° NNE 19:51:26 13° E
Cosmos 1758 Rocket 3.6 19:49:40 10° S 19:54:10 89° W 19:58:41 10° N
Cosmos 783 Rocket 4.5 19:49:29 10° SSW 19:54:44 87° ESE 20:00:00 10° NNE
SL-24 R/B - RUBIN 2 4.4 19:49:52 10° SSW 19:55:50 74° ESE 20:02:25 10° NE
Cosmos 1455 2.8 19:52:32 10° NNW 19:56:20 57° W 20:00:06 10° S
USA 245 3.1 19:54:56 13° SSE 19:57:50 84° ENE 20:02:03 10° NNW
Cosmos 1328 3.7 19:55:33 10° S 19:59:31 86° E 20:03:30 10° N
Cosmos 1538 Rocket 4.4 19:59:28 10° S 20:04:34 46° ESE 20:09:39 10° NNE
ATLAS 2AS CENTAUR R/B 4.1 20:00:53 10° NNW 20:07:46 34° NNE 20:14:09 10° E
COSMOS 2428 2.9 20:03:54 10° S 20:09:21 50° ESE 20:14:49 10° NE
Cosmos 1703 3.7 20:06:36 10° SSW 20:10:26 61° W 20:14:18 10° N
Cosmos 1844 3.8 20:05:31 10° NNW 20:11:18 76° WSW 20:16:01 15° SSE
Cosmos 2322 3.7 20:06:23 10° SSW 20:12:06 86° ESE 20:17:52 10° NNE
Cosmos 2181 Rocket 4.1 20:05:51 10° N 20:12:09 64° E 20:17:11 16° SSE
DELTA 2 R/B (1) 4.3 20:09:45 10° SW 20:14:31 30° SSE 20:19:19 10° E
Cosmos 2084 3.9 20:12:01 10° NNW 20:16:26 55° NE 20:19:31 19° ESE
Cosmos 1953 Rocket 3.5 20:13:07 10° S 20:17:26 88° ESE 20:21:47 10° N
Cosmos 773 Rocket 4.0 20:12:57 10° SSW 20:18:15 90° WNW 20:23:36 10° NNE
Cosmos 2237 Rocket 3.3 20:17:54 18° SE 20:20:27 25° ESE 20:25:00 10° NE
ERS-1 Rocket 3.0 20:16:48 17° SSE 20:20:39 75° ENE 20:25:42 10° N
Cosmos 2219 Rocket 2.1 20:15:38 10° SSW 20:21:10 70° ESE 20:26:45 10° NNE
ATLAS CENTAUR R/B 1.3 20:19:05 10° NNW 20:22:44 59° NE 20:24:46 24° SE
USA 215 3.3 20:16:44 10° ENE 20:23:12 58° SE 20:29:37 10° SW
Cosmos 2360 Rocket 3.4 20:18:35 10° SW 20:23:58 44° WNW 20:29:23 10° NNE
Cosmos 2333 4.3 20:18:22 10° SSW 20:24:00 80° WNW 20:29:45 10° NNE
Meteor 1-27 4.3 20:18:23 10° N 20:24:07 69° ENE 20:28:19 19° SSE
Gblst 52 Del rocket 4.5 20:18:58 10° WNW 20:24:38 72° NNE 20:30:21 13° ESE
Cosmos 1869 4.3 20:21:32 10° N 20:25:10 32° ENE 20:27:01 22° ESE
SPOT 5 2.9 20:23:12 19° SSE 20:26:47 74° ENE 20:31:35 10° N
Cosmos 1842 Rocket 4.1 20:22:57 10° N 20:27:08 44° ENE 20:29:24 23° SE
Atlas Centaur 2 3.8 20:28:40 10° SW 20:33:01 20° S 20:34:39 18° SSE
Cosmos 2333 Rocket 2.2 20:29:21 10° SSW 20:35:02 87° WNW 20:40:48 10° NNE
GEOS 3 Rocket 4.0 20:33:46 10° NE 20:39:10 72° NW 20:44:32 10° SW
BREEZE-M DEB (TANK) 4.3 20:43:57 15° E 20:43:57 15° E 20:45:46 10° E
NOSS 0 Rocket 4.1 20:38:25 16° S 20:43:03 50° ESE 20:48:59 10° NE
Cosmos 1315 Rocket 2.9 20:43:29 10° NNW 20:47:35 75° W 20:49:47 27° S
Meteor 2-2 Rocket 4.4 20:44:01 10° N 20:49:48 65° ENE 20:53:03 26° SSE
CARTOSAT-1 4.1 20:49:41 21° S 20:52:21 53° W 20:56:36 10° NNW
Cosmos 1892 3.3 20:51:28 33° SE 20:52:24 40° E 20:55:58 10° NNE
OAO 2 Rocket 4.4 20:48:34 10° WSW 20:52:57 26° S 20:53:38 26° S
ATLAS 5 CENTAUR R/B 3.8 20:49:25 10° W 20:53:09 29° NW 20:57:17 10° NNE
USA 81 4.4 20:48:47 13° SSW 20:53:31 63° W 20:58:46 10° N
USA 267 3.7 20:49:19 12° ESE 20:55:22 61° NNE 21:01:49 10° NW
Cosmos 2278 Rocket 2.3 20:50:01 10° NNW 20:55:42 68° ENE 20:58:50 27° SE
Cosmos 1844 Rocket 4.3 20:52:54 10° NW 20:57:26 26° WSW 21:01:37 11° SSW
Cosmos 1680 Rocket 3.8 20:59:29 29° SSE 21:01:54 49° ESE 21:07:01 10° NNE
MTI 3.6 20:58:50 10° NNE 21:01:55 65° ESE 21:02:17 57° SE
Cosmos 1408 3.4 21:03:39 31° E 21:03:54 31° E 21:07:07 10° NNE
SL-16 R/B 3.5 21:04:44 20° ESE 21:05:35 21° E 21:09:42 10° NE
BREEZE-M R/B 4.4 21:00:25 10° WNW 21:10:22 52° SW 21:12:48 31° SSE
Cosmos 2184 Rocket 4.0 21:08:52 21° S 21:13:15 85° W 21:19:36 10° N
Cosmos 2221 2.6 21:09:04 10° NNW 21:13:27 71° W 21:15:14 34° S
Lacrosse 5 rocket 4.1 21:13:55 10° NNW 21:16:33 16° N 21:19:07 10° NE
In-Cosmos 22 Rocket 4.0 21:14:18 28° S 21:17:13 85° E 21:22:34 10° NNE
Terra 2.4 21:14:58 26° SSW 21:17:23 50° W 21:22:03 10° NNW
Cosmos 923 Rocket 3.9 21:16:24 23° SSW 21:19:46 89° ESE 21:25:06 10° NNE
Cosmos 2058 3.0 21:27:38 38° SSW 21:29:09 74° W 21:33:18 10° N
TSX-5 3.9 21:25:34 10° NW 21:29:09 65° WSW 21:30:04 48° S
Okean 3 Rocket 4.5 21:30:13 31° ESE 21:30:52 33° E 21:34:50 10° NNE
NOSS 3-4 (A) 3.9 21:24:34 10° NW 21:31:35 81° NE 21:36:03 28° SE
NOSS 3-4 (C) 3.9 21:24:40 10° NW 21:31:42 80° NE 21:36:11 28° SE
Cosmos 1624 Rocket 4.1 21:34:04 10° NNW 21:39:18 66° ENE 21:41:12 38° SE
Cosmos 1825 2.2 21:39:57 58° ESE 21:40:14 61° E 21:44:00 10° NNE
Cosmos 1340 4.5 21:40:48 19° E 21:40:48 19° E 21:43:14 10° NE
Cosmos 1980 3.9 21:41:49 18° SW 21:46:02 69° WNW 21:51:42 10° NNE
EO 1 Delta rocket 4.3 21:40:55 10° NNE 21:46:06 75° E 21:48:46 35° S
Cosmos 2369 Rocket 4.2 21:42:49 10° N 21:47:02 21° NE 21:51:12 10° E
Cosmos 1076 Rocket 4.1 21:47:33 32° SW 21:49:12 51° WNW 21:53:24 10° N
Aureole 2 Rocket 3.2 21:46:31 10° N 21:48:50 36° NE 21:48:50 36° NE
Nadezhda 3 Rocket 4.2 21:46:00 10° NNW 21:52:19 67° W 21:55:18 33° SSW
Cosmos 2154 Rocket 4.2 21:49:47 26° SSW 21:53:20 66° W 21:59:33 10° N
COSMOS 2455 4.0 21:48:51 10° NNW 21:54:25 36° NE 21:58:41 16° ESE
Cosmos 2151 2.9 21:55:43 59° S 21:56:30 82° E 22:00:47 10° N
Cosmos 2341 Rocket 3.9 21:55:15 37° S 21:57:51 78° E 22:04:05 10° N
Cosmos 1933 4.0 21:55:27 10° N 21:59:16 40° ENE 21:59:44 38° E
ATLAS 2AS CENTAUR R/B 2.8 21:51:58 10° NW 21:59:31 78° SW 22:02:39 36° SSE
Thor Agena Rocket 3.5 21:54:24 10° NNE 21:59:32 81° WNW 22:01:29 39° SSW
DELTA 2 R/B (1) 3.7 21:55:01 10° WSW 22:00:21 47° S 22:01:15 43° SSE
ATLAS CENTAUR R/B 3.5 21:59:37 10° W 22:00:56 12° WSW 22:00:56 12° WSW
Genesis I 3.9 22:00:58 27° WSW 22:02:46 52° NW 22:06:36 10° NNE
BREEZE-M DEB (TANK) 1.9 22:00:01 10° WNW 22:03:23 57° N 22:03:23 57° N
Cosmos 2237 Rocket 2.8 21:59:39 16° SW 22:04:09 54° WNW 22:09:45 10° NNE
Cosmos 2219 Rocket 4.4 22:01:21 10° W 22:05:40 22° NW 22:10:01 10° N
USA 215 4.0 21:59:50 10° NE 22:06:11 54° NNW 22:12:30 10° WSW
Cosmos 1371 Rocket 4.1 22:02:09 10° NNW 22:07:22 64° WSW 22:08:51 45° SSW
Spot 4 4.0 22:06:50 47° SSW 22:08:02 65° WSW 22:12:48 10° NNW
Cosmos 2344 3.5 22:05:02 15° SW 22:11:32 87° NW 22:19:38 10° NE
SL-8 Rocket 3.9 22:11:02 41° S 22:13:19 76° E 22:19:29 10° N
Cosmos 1151 Rocket 3.0 22:10:50 10° N 22:15:09 68° E 22:15:44 59° SE
Cosmos 1408 Rocket 3.9 22:15:03 47° ESE 22:15:27 49° E 22:19:42 10° NNE
Cosmos 1782 4.2 22:13:33 10° NNE 22:16:57 27° ENE 22:17:28 26° E
ALOS 2 2.5 22:18:57 63° SSE 22:19:39 87° ENE 22:24:04 10° NNW
Cosmos 1346 Rocket 3.8 22:20:27 34° E 22:20:27 34° E 22:23:52 10° NNE
CZ-4C R/B 4.1 22:13:57 10° NNW 22:20:25 38° NE 22:27:48 10° ESE
Cosmos 332 Rocket 4.3 22:16:42 10° NNW 22:21:23 51° ENE 22:22:47 38° ESE
Cosmos 1420 Rocket 4.0 22:17:07 10° NNW 22:22:26 82° ENE 22:23:55 48° SSE
Cosmos 1727 Rocket 4.3 22:20:53 10° N 22:27:02 58° ENE 22:29:27 36° SE
EO 1 Del DPAF 4.4 22:25:38 10° N 22:29:05 35° WNW 22:29:55 31° W
Cosmos 2056 Rocket 4.1 22:25:58 10° NNW 22:31:08 47° WSW 22:32:26 39° SW
GP-B 3.1 22:27:56 10° N 22:32:23 75° W 22:33:05 60° SSW
Cosmos 1633 3.4 22:32:54 39° ENE 22:32:54 39° ENE 22:35:57 10° NNE
Nimbus 7 Rocket 4.4 22:29:38 10° NNE 22:35:35 76° WNW 22:37:58 38° SSW
Cosmos 1606 3.1 22:33:33 10° NNW 22:37:21 52° W 22:37:25 52° W
USA 267 3.5 22:36:39 40° S 22:38:28 49° SW 22:44:49 10° WNW
RESURS DK-1 4.3 22:35:40 10° N 22:39:06 24° NE 22:41:06 17° E
Cosmos 2278 Rocket 3.9 22:35:18 10° NW 22:39:11 19° W 22:40:40 17° WSW
Cosmos 1943 4.3 22:41:16 27° ESE 22:42:06 29° ESE 22:46:53 10° NE
Cosmos 44 3.5 22:40:51 36° WSW 22:42:20 55° NW 22:46:42 10° NNE
Cosmos 2297 3.8 22:36:45 10° NNW 22:42:26 63° WSW 22:43:52 47° SSW
Cosmos 1943 Rocket 2.4 22:37:39 10° NNW 22:43:20 68° ENE 22:45:29 38° SE
Cosmos 1048 Rocket 4.3 22:42:49 46° SE 22:43:45 52° ESE 22:48:52 10° NNE
Gbstr 26 Del rocket 2.8 22:44:19 65° E 22:44:19 65° E 22:47:59 10° ENE
Landsat 4 4.2 22:45:08 10° NNE 22:48:35 48° E 22:48:35 48° E
SL-16 R/B 2.5 22:46:35 32° SW 22:49:10 63° WNW 22:54:50 10° NNE
Cosmos 371 Rocket 3.3 22:45:52 10° NNW 22:50:40 63° WSW 22:51:21 56° SSW
APEX 4.3 22:52:26 10° NNW 22:53:51 27° NW 22:53:51 27° NW
Cosmos 405 3.2 22:52:56 10° N 22:56:11 66° NE 22:56:11 66° NE
Lacrosse 5 rocket 2.7 22:53:02 10° NW 22:56:43 35° NNE 22:59:15 16° E
Cosmos 1452 Rocket 3.4 22:52:56 10° NNW 22:58:12 75° WSW 22:59:20 54° S
Cosmos 1515 Rocket 3.4 22:55:23 10° NNW 22:59:44 72° W 23:00:08 66° SW
ISS -1.1 23:04:52 12° E 23:04:52 12° E 23:05:13 10° ENE
Cosmos 1328 Rocket 4.4 23:01:49 10° NNW 23:05:46 36° W 23:06:06 35° WSW
SeaSat 1 4.3 23:04:35 10° ENE 23:07:37 16° ESE 23:08:09 16° ESE
Meteor 2-3 Rocket 4.2 23:12:54 36° SW 23:14:55 53° WNW 23:20:31 10° N
Cosmos 1340 4.0 23:15:33 29° W 23:15:54 29° WNW 23:19:15 10° N
Cosmos 2228 Rocket 3.0 23:16:11 10° N 23:20:47 80° W 23:21:26 64° SSW
Resurs 1-4 Rocket 4.0 23:18:08 10° NE 23:21:40 18° E 23:23:48 14° ESE
Cosmos 1603 3.7 23:22:36 48° S 23:24:11 74° ESE 23:29:54 10° NNE
Meteor 2-6 Rocket 4.0 23:21:32 10° N 23:27:03 88° ENE 23:28:38 48° SSE
Meteor 1-10 Rocket 4.2 23:22:50 10° N 23:28:26 76° ENE 23:30:20 42° SSE
Cosmos 1633 Rocket 4.4 23:27:34 26° ESE 23:28:31 28° E 23:32:17 10° NNE
Cosmos 1743 Rocket 3.9 23:29:40 46° WSW 23:30:17 50° WNW 23:34:32 10° N
Sich 1 3.3 23:29:53 48° ESE 23:30:28 53° E 23:34:41 10° NNE
SL-4 R/B 3.9 23:32:14 13° ENE 23:32:14 13° ENE 23:32:48 10° ENE
CZ-4 R/B 3.7 23:26:42 10° NNE 23:31:26 87° WNW 23:32:25 57° SSW
Cosmos 2369 Rocket 2.1 23:26:04 10° NNW 23:31:40 75° WSW 23:33:18 47° S
Cosmos 44 Rocket 3.2 23:32:07 58° SSE 23:32:41 64° ESE 23:37:24 10° NE
Cosmos 1821 Rocket 3.9 23:30:57 43° SSW 23:33:08 81° W 23:39:16 10° N
Helios 1A 4.0 23:34:09 31° W 23:34:09 31° W 23:37:48 10° NNW
Cosmos 304 Rocket 4.0 23:29:49 10° NNW 23:34:30 50° WSW 23:35:00 48° SW
Lacrosse 5 3.8 23:36:20 15° ESE 23:36:20 15° ESE 23:39:11 10° E
Cosmos 2123 Rocket 4.1 23:31:49 10° N 23:38:01 69° E 23:40:49 34° SSE
COSMOS 2455 3.2 23:34:44 10° NW 23:40:30 47° WSW 23:41:47 41° SSW
Cosmos 1656 Rocket 3.8 23:36:24 10° NNW 23:41:49 69° ENE 23:44:30 30° SE
ATLAS 2AS CENTAUR R/B 4.4 23:45:07 10° WNW 23:49:08 16° WSW 23:50:03 15° WSW
Cosmos 1812 2.5 23:47:21 10° N 23:51:14 81° W 23:51:25 77° SW
Cosmos 1782 4.3 23:49:59 10° NW 23:53:04 23° W 23:53:04 23° W
USA 32 4.0 23:51:42 47° S 23:53:16 84° W 23:58:34 10° N
CZ-2D R/B 3.3 23:50:16 10° NNE 23:55:03 33° E 23:57:20 24° SE
